When you browse on this site, cookies collect data to enhance your experience and personalize the content and advertising you see.
Visit our Privacy Policy to learn more. By continuing to use the site, you agree to this use of cookies and data.
  • En España
  • Lista de países
  • Para 7 días
  • Temperatura del agua
  • Mapa Satelital
  • El tiempo en el mapa
  • Informadores
  • user-avatar
    Iniciar sesión

    Tiempo cada hora Lubango

    Hoy, 17 Enero, Jueves

    Tiempo Temperatura Precipitaciones Viento Presión Humedad
    00:00 +15°C° 0 mm 1 mps 608 mmHg 68%
    01:00 +15°C° 0 mm 1 mps 608 mmHg 69%
    02:00 +15°C° 0.2 mm 1 mps 608 mmHg 69%
    03:00 +15°C° 0.2 mm 1 mps 608 mmHg 70%
    04:00 +15°C° 0.2 mm 1 mps 607 mmHg 71%
    05:00 +15°C° 0.3 mm 1 mps 608 mmHg 69%
    06:00 +15°C° 0.3 mm 1 mps 608 mmHg 68%
    07:00 +16°C° 0 mm 1 mps 608 mmHg 66%
    08:00 +18°C° 0.3 mm 1 mps 609 mmHg 62%
    09:00 +19°C° 0.3 mm 1 mps 609 mmHg 58%
    10:00 +20°C° 0.3 mm 1 mps 609 mmHg 54%
    11:00 +21°C° 0 mm 1 mps 609 mmHg 51%
    12:00 +21°C° 0 mm 2 mps 609 mmHg 48%
    13:00 +23°C° 0 mm 2 mps 609 mmHg 45%
    14:00 +23°C° 0 mm 2 mps 609 mmHg 44%
    15:00 +23°C° 0 mm 2 mps 609 mmHg 42%
    16:00 +24°C° 0 mm 2 mps 608 mmHg 41%
    17:00 +21°C° 0 mm 2 mps 608 mmHg 45%
    18:00 +19°C° 0 mm 2 mps 607 mmHg 50%
    19:00 +17°C° 0 mm 2 mps 607 mmHg 54%
    20:00 +17°C° 0 mm 2 mps 607 mmHg 56%
    21:00 +16°C° 0 mm 1 mps 608 mmHg 58%
    22:00 +16°C° 0 mm 1 mps 608 mmHg 59%
    23:00 +16°C° 0 mm 1 mps 608 mmHg 60%

    Mañana, 18 Enero, Viernes

    Tiempo Temperatura Precipitaciones Viento Presión Humedad
    00:00 +16°C° 0 mm 1 mps 608 mmHg 62%
    01:00 +15°C° 0 mm 1 mps 608 mmHg 63%
    02:00 +16°C° 0 mm 1 mps 608 mmHg 63%
    03:00 +16°C° 0 mm 1 mps 607 mmHg 63%
    04:00 +16°C° 0 mm 1 mps 607 mmHg 62%
    05:00 +16°C° 0 mm 1 mps 608 mmHg 62%
    06:00 +15°C° 0 mm 0 mps 608 mmHg 61%
    07:00 +15°C° 0 mm 0 mps 608 mmHg 60%
    08:00 +20°C° 0 mm 1 mps 609 mmHg 54%
    09:00 +22°C° 0 mm 1 mps 610 mmHg 47%
    10:00 +24°C° 0 mm 1 mps 611 mmHg 41%
    11:00 +25°C° 0 mm 1 mps 611 mmHg 38%
    12:00 +27°C° 0 mm 2 mps 611 mmHg 35%
    13:00 +28°C° 0 mm 2 mps 611 mmHg 32%
    14:00 +27°C° 0 mm 2 mps 610 mmHg 34%
    15:00 +26°C° 0 mm 3 mps 609 mmHg 37%
    16:00 +25°C° 0 mm 3 mps 608 mmHg 39%
    17:00 +23°C° 0 mm 2 mps 608 mmHg 43%
    18:00 +20°C° 0 mm 2 mps 608 mmHg 48%
    19:00 +19°C° 0 mm 2 mps 607 mmHg 52%
    20:00 +18°C° 0 mm 2 mps 608 mmHg 56%
    21:00 +18°C° 0 mm 1 mps 608 mmHg 59%
    22:00 +16°C° 0 mm 1 mps 608 mmHg 62%
    23:00 +15°C° 0 mm 1 mps 608 mmHg 64%

    Pasado mañana, 19 Enero, Sábado

    Tiempo Temperatura Precipitaciones Viento Presión Humedad
    00:00 +15°C° 0 mm 1 mps 608 mmHg 66%
    01:00 +15°C° 0 mm 1 mps 608 mmHg 67%
    02:00 +15°C° 0.2 mm 1 mps 607 mmHg 68%
    03:00 +15°C° 0.2 mm 1 mps 607 mmHg 69%
    04:00 +15°C° 0.2 mm 1 mps 607 mmHg 69%
    05:00 +15°C° 0 mm 1 mps 608 mmHg 67%
    06:00 +15°C° 0 mm 0 mps 608 mmHg 64%
    07:00 +15°C° 0 mm 0 mps 609 mmHg 62%
    08:00 +20°C° 0 mm 1 mps 610 mmHg 54%
    09:00 +23°C° 0 mm 1 mps 611 mmHg 47%
    10:00 +25°C° 0 mm 1 mps 612 mmHg 39%
    11:00 +26°C° 0 mm 1 mps 611 mmHg 39%
    12:00 +26°C° 0 mm 2 mps 611 mmHg 38%
    13:00 +27°C° 0 mm 2 mps 611 mmHg 38%
    14:00 +25°C° 0.2 mm 2 mps 610 mmHg 43%
    15:00 +24°C° 0.2 mm 2 mps 609 mmHg 48%
    16:00 +21°C° 0.2 mm 2 mps 608 mmHg 54%
    17:00 +20°C° 0.1 mm 2 mps 608 mmHg 57%
    18:00 +19°C° 0.1 mm 2 mps 608 mmHg 61%
    19:00 +18°C° 0.1 mm 2 mps 608 mmHg 65%
    20:00 +18°C° 0 mm 1 mps 608 mmHg 69%
    21:00 +18°C° 0 mm 1 mps 608 mmHg 74%
    22:00 +16°C° 0 mm 1 mps 608 mmHg 78%
    23:00 +15°C° 0 mm 1 mps 608 mmHg 81%

    20 Enero, Domingo

    Tiempo Temperatura Precipitaciones Viento Presión Humedad
    00:00 +15°C° 0 mm 1 mps 608 mmHg 83%
    01:00 +14°C° 0 mm 1 mps 607 mmHg 86%
    02:00 +14°C° 0 mm 1 mps 607 mmHg 86%
    03:00 +14°C° 0 mm 1 mps 607 mmHg 86%
    04:00 +14°C° 0 mm 1 mps 607 mmHg 86%
    05:00 +15°C° 0 mm 1 mps 608 mmHg 83%
    06:00 +14°C° 0 mm 0 mps 608 mmHg 79%
    07:00 +15°C° 0 mm 0 mps 609 mmHg 76%
    08:00 +18°C° 0 mm 0 mps 610 mmHg 66%
    09:00 +22°C° 0 mm 1 mps 611 mmHg 56%
    10:00 +25°C° 0 mm 1 mps 612 mmHg 46%
    11:00 +26°C° 0 mm 1 mps 612 mmHg 43%
    12:00 +27°C° 0 mm 1 mps 612 mmHg 39%
    13:00 +28°C° 0 mm 2 mps 611 mmHg 36%
    14:00 +27°C° 0.1 mm 2 mps 611 mmHg 40%
    15:00 +25°C° 0.1 mm 2 mps 610 mmHg 44%
    16:00 +24°C° 0.1 mm 3 mps 609 mmHg 49%
    17:00 +21°C° 0 mm 3 mps 609 mmHg 56%
    18:00 +20°C° 0 mm 2 mps 609 mmHg 63%
    19:00 +18°C° 0 mm 2 mps 609 mmHg 71%
    20:00 +17°C° 0 mm 2 mps 609 mmHg 76%
    21:00 +17°C° 0 mm 2 mps 609 mmHg 81%
    22:00 +16°C° 0 mm 1 mps 609 mmHg 86%
    23:00 +15°C° 0 mm 1 mps 609 mmHg 87%

    21 Enero, Lunes

    Tiempo Temperatura Precipitaciones Viento Presión Humedad
    00:00 +15°C° 0 mm 1 mps 609 mmHg 89%
    01:00 +15°C° 0 mm 1 mps 608 mmHg 90%
    02:00 +15°C° 0 mm 1 mps 608 mmHg 90%
    03:00 +14°C° 0 mm 0 mps 608 mmHg 90%
    04:00 +14°C° 0 mm 0 mps 608 mmHg 90%
    05:00 +14°C° 0 mm 0 mps 609 mmHg 86%
    06:00 +15°C° 0 mm 0 mps 609 mmHg 82%
    07:00 +16°C° 0 mm 0 mps 610 mmHg 79%
    08:00 +18°C° 0 mm 0 mps 610 mmHg 69%
    09:00 +22°C° 0 mm 1 mps 611 mmHg 60%
    10:00 +24°C° 0 mm 1 mps 612 mmHg 51%
    11:00 +25°C° 0 mm 2 mps 612 mmHg 46%
    12:00 +27°C° 0 mm 2 mps 612 mmHg 41%
    13:00 +28°C° 0 mm 2 mps 611 mmHg 36%
    14:00 +26°C° 0.1 mm 2 mps 610 mmHg 41%
    15:00 +25°C° 0.1 mm 2 mps 609 mmHg 47%
    16:00 +23°C° 0.1 mm 2 mps 608 mmHg 53%
    17:00 +22°C° 0.1 mm 1 mps 608 mmHg 57%
    18:00 +21°C° 0.1 mm 1 mps 608 mmHg 62%
    19:00 +20°C° 0.1 mm 1 mps 608 mmHg 67%
    20:00 +19°C° 0.1 mm 1 mps 609 mmHg 71%
    21:00 +19°C° 0.1 mm 1 mps 609 mmHg 76%
    22:00 +16°C° 0.1 mm 0 mps 609 mmHg 80%
    23:00 +16°C° 0 mm 0 mps 609 mmHg 81%

    22 Enero, Martes

    Tiempo Temperatura Precipitaciones Viento Presión Humedad
    00:00 +15°C° 0 mm 0 mps 608 mmHg 82%
    01:00 +15°C° 0 mm 0 mps 608 mmHg 83%
    02:00 +15°C° 0 mm 0 mps 608 mmHg 83%
    03:00 +15°C° 0 mm 0 mps 608 mmHg 83%
    04:00 +15°C° 0 mm 0 mps 607 mmHg 83%
    05:00 +15°C° 0 mm 0 mps 608 mmHg 80%
    06:00 +16°C° 0 mm 0 mps 609 mmHg 77%
    07:00 +17°C° 0 mm 0 mps 609 mmHg 74%
    08:00 +21°C° 0.4 mm 1 mps 610 mmHg 66%
    09:00 +23°C° 0.4 mm 2 mps 611 mmHg 58%
    10:00 +26°C° 0.4 mm 3 mps 612 mmHg 50%
    11:00 +26°C° 0.8 mm 2 mps 612 mmHg 49%
    12:00 +26°C° 0.8 mm 2 mps 611 mmHg 47%
    13:00 +26°C° 0.8 mm 1 mps 610 mmHg 46%
    14:00 +26°C° 0.4 mm 1 mps 609 mmHg 48%
    15:00 +25°C° 0.4 mm 2 mps 609 mmHg 51%
    16:00 +24°C° 0.4 mm 2 mps 608 mmHg 53%
    17:00 +23°C° 0.2 mm 2 mps 608 mmHg 59%
    18:00 +21°C° 0.2 mm 2 mps 608 mmHg 65%
    19:00 +19°C° 0.2 mm 2 mps 608 mmHg 70%
    20:00 +19°C° 0.6 mm 1 mps 608 mmHg 75%
    21:00 +18°C° 0.6 mm 1 mps 608 mmHg 79%
    22:00 +16°C° 0.6 mm 1 mps 608 mmHg 84%
    23:00 +16°C° 1.2 mm 1 mps 608 mmHg 85%
    Mostrar más